Location: Vaughan
(31.9146°N, 97.1736°W)
Time: 00:46:45
(UTC+00:00)

BlueWalker 3 - Pass Details

Date: 10 December 2025
Orbit: 451 x 463 km, 53.2° (Epoch: 17 January)

Event Time Altitude Azimuth Distance (km) Brightness Sun altitude
Rises 01:21:15 0° 305° (NW) 2,492 6.1 -24.1°
Reaches altitude 10° 01:23:35 10° 293° (WNW) 1,614 5.2 -24.5°
Maximum altitude 01:26:43 27° 233° (SW) 912 3.8 -25.2°
Enters shadow 01:28:07 21° 196° (SSW) 1,088 3.9 -25.5°
